Location: Seattle
(47.6064°N, 122.3308°W)
Time: 01:47:22
(UTC-08:00)

A-11 Canister half - Pass Details

Date: 05 December 2020
Orbit: 1524 x 1684 km, 47.3° (Epoch: 21 January)

Event Time Altitude Azimuth Distance (km) Brightness Sun altitude
Rises 02:28:45 0° 193° (SSW) 4,905 - -51.1°
Reaches altitude 10° 02:32:37 10° 181° (S) 3,931 - -50.6°
Maximum altitude 02:40:19 26° 131° (SE) 2,897 - -49.4°
Exits shadow 02:40:51 25° 126° (SE) 2,904 10.5 -49.3°
Drops below altitude 10° 02:48:01 10° 81° (E) 3,939 11.6 -48.2°
Sets 02:51:51 0° 69° (ENE) 4,917 12.4 -47.6°
